GW7263 Weather Reports


Display with metric or nautical units.
time (UTC)temp
F
wind
direction
speed
MPH
gust
MPH
rain 1hr
in
rain 24hr
in
rain mn
in
humidity
%
barometer
mb
20260902154528 78 206 1.0 2.0 0.00 0.00 0.00 59 1028.1
20260902153537 80 218 2.0 3.0 0.00 0.00 0.00 59 1028.1
20260902152607 81 266 2.0 4.0 0.00 0.00 0.00 56 1028.2
20260902151559 82 239 2.0 4.0 0.00 0.00 0.00 54 1028.4
20260902150547 82 249 3.0 7.0 0.00 0.00 0.00 53 1028.3
20260902145537 83 210 4.0 8.0 0.00 0.00 0.00 51 1028.5
20260902144527 83 186 3.0 6.0 0.00 0.00 0.00 51 1028.4
20260902143519 82 194 2.0 4.0 0.00 0.00 0.00 53 1028.5
20260902142609 81 171 2.0 4.0 0.00 0.00 0.00 52 1028.5
20260902141558 82 224 2.0 3.0 0.00 0.00 0.00 51 1028.6
20260902140548 82 190 4.0 8.0 0.00 0.00 0.00 50 1028.6
20260902135619 84 200 3.0 9.0 0.00 0.00 0.00 49 1028.7
20260902134529 84 169 4.0 8.0 0.00 0.00 0.00 48 1028.6
20260902133517 84 192 3.0 6.0 0.00 0.00 0.00 49 1028.7
20260902132608 84 176 4.0 7.0 0.00 0.00 0.00 49 1028.7
20260902131558 84 179 3.0 7.0 0.00 0.00 0.00 49 1029.0
20260902130609 84 203 4.0 9.0 0.00 0.00 0.00 48 1028.9
20260902125540 84 197 5.0 9.0 0.00 0.00 0.00 48 1029.0
20260902124528 84 191 4.0 8.0 0.00 0.00 0.00 47 1029.0
20260902123518 84 193 4.0 7.0 0.00 0.00 0.00 48 1029.1
20260902122631 84 170 3.0 7.0 0.00 0.00 0.00 48 1029.1
20260902121601 83 172 5.0 7.0 0.00 0.00 0.00 49 1029.3
20260902120550 82 207 3.0 7.0 0.00 0.00 0.00 51 1029.4
20260902115539 82 174 4.0 7.0 0.00 0.00 0.00 50 1029.5
20260902114529 82 207 3.0 8.0 0.00 0.00 0.00 51 1029.7
20260902113519 82 156 3.0 7.0 0.00 0.00 0.00 51 1029.8
20260902112610 81 188 4.0 9.0 0.00 0.00 0.00 52 1030.0
20260902111600 81 152 3.0 6.0 0.00 0.00 0.00 52 1030.1
20260902110551 81 177 3.0 4.0 0.00 0.00 0.00 53 1030.2
20260902105540 81 166 2.0 6.0 0.00 0.00 0.00 54 1030.4
20260902104550 81 146 1.0 3.0 0.00 0.00 0.00 56 1030.6
20260902103520 79 151 1.0 2.0 0.00 0.00 0.00 56 1030.7
20260902102611 78 145 1.0 2.0 0.00 0.00 0.00 56 1030.9
20260902101601 78 144 1.0 2.0 0.00 0.00 0.00 56 1031.1
20260902100553 79 72 1.0 1.0 0.00 0.00 0.00 54 1031.1
20260902095541 78 74 0.0 1.0 0.00 0.00 0.00 59 1031.1
20260902094531 75 163 1.0 1.0 0.00 0.00 0.00 60 1031.3
20260902093520 73 162 0.0 1.0 0.00 0.00 0.00 64 1031.4
20260902092611 73 169 1.0 2.0 0.00 0.00 0.00 63 1031.4
20260902091624 73 141 1.0 2.0 0.00 0.00 0.00 66 1031.4
20260902090552 72 116 1.0 2.0 0.00 0.00 0.00 67 1031.5
20260902085543 73 71 0.0 1.0 0.00 0.00 0.00 66 1031.4
20260902084532 71 0.0 0.0 0.00 0.00 0.00 69 1031.4
20260902083542 68 0.0 0.0 0.00 0.00 0.00 75 1031.5
20260902082613 69 106 1.0 1.0 0.00 0.00 0.00 76 1031.5
20260902081604 67 48 0.0 1.0 0.00 0.00 0.00 79 1031.5
20260902080554 66 0.0 0.0 0.00 0.00 0.00 84 1031.6
20260902075544 65 0.0 0.0 0.00 0.00 0.00 83 1031.6
20260902074555 65 0.0 0.0 0.00 0.00 0.00 84 1031.5
20260902073523 64 0.0 0.0 0.00 0.00 0.00 84 1031.7
20260902072615 64 26 0.0 1.0 0.00 0.00 0.00 83 1031.7
20260902071605 63 0.0 0.0 0.00 0.00 0.00 85 1031.6
20260902070555 63 0.0 0.0 0.00 0.00 0.00 84 1031.7
20260902065626 63 0.0 0.0 0.00 0.00 0.00 85 1031.6
20260902064534 63 0.0 0.0 0.00 0.00 0.00 86 1031.7
20260902063524 62 0.0 0.0 0.00 0.00 0.00 86 1031.6
20260902062617 62 0.0 0.0 0.00 0.00 0.00 87 1031.7
20260902061605 62 0.0 0.0 0.00 0.00 0.00 87 1031.6
20260902060556 61 0.0 0.0 0.00 0.00 0.00 87 1031.5
20260902055545 61 0.0 0.0 0.00 0.00 0.00 88 1031.6
20260902054535 61 0.0 0.0 0.00 0.00 0.00 89 1031.5
20260902053526 61 0.0 0.0 0.00 0.00 0.00 89 1031.5
20260902052616 61 0.0 0.0 0.00 0.00 0.00 89 1031.4
20260902051607 61 0.0 0.0 0.00 0.00 0.00 88 1031.3
20260902050557 61 0.0 0.0 0.00 0.00 0.00 87 1031.4
20260902045546 62 0.0 0.0 0.00 0.00 0.00 87 1031.3
20260902044536 62 8 0.0 2.0 0.00 0.00 0.00 86 1031.1
20260902043526 62 0.0 0.0 0.00 0.00 0.00 87 1031.2
20260902042538 61 359 0.0 1.0 0.00 0.00 0.00 89 1031.2
20260902041607 61 0.0 0.0 0.00 0.00 0.00 89 1031.2
20260902040557 61 0.0 0.0 0.00 0.00 0.00 88 1031.1
20260902035608 62 0.0 0.0 0.00 0.00 0.00 87 1031.2
20260902034537 62 0.0 0.0 0.00 0.00 0.00 86 1031.2
20260902033528 62 0.0 0.0 0.00 0.00 0.00 85 1031.2
20260902032517 63 9 0.0 2.0 0.00 0.00 0.00 84 1031.1
20260902031608 62 0.0 0.0 0.00 0.00 0.00 85 1031.2
20260902030600 62 0.0 0.0 0.00 0.00 0.00 85 1031.2
20260902025608 62 0.0 0.0 0.00 0.00 0.00 85 1031.2
20260902024538 62 0.0 0.0 0.00 0.00 0.00 85 1031.3
20260902023548 62 0 0.0 1.0 0.00 0.00 0.00 85 1031.3
20260902022519 62 0.0 0.0 0.00 0.00 0.00 85 1031.2
20260902021630 62 0.0 0.0 0.00 0.00 0.00 85 1031.2
20260902020600 62 0.0 0.0 0.00 0.00 0.00 86 1031.3
20260902015549 62 0.0 0.0 0.00 0.00 0.00 86 1031.3
20260902014539 62 0.0 0.0 0.00 0.00 0.00 85 1031.2
20260902013529 63 15 0.0 1.0 0.00 0.00 0.00 84 1031.2
20260902012519 63 29 0.0 2.0 0.00 0.00 0.00 83 1031.2
20260902011611 64 0.0 0.0 0.00 0.00 0.00 82 1031.2
20260902010600 64 327 0.0 3.0 0.00 0.00 0.00 82 1031.1
20260902005550 64 10 0.0 1.0 0.00 0.00 0.00 82 1031.1
20260902004541 64 14 1.0 2.0 0.00 0.00 0.00 82 1031.2
20260902003530 64 17 1.0 4.0 0.00 0.00 0.00 82 1031.1
20260902002520 64 13 2.0 3.0 0.00 0.00 0.00 82 1031.0
20260902001612 64 16 1.0 2.0 0.00 0.00 0.00 83 1031.1
20260902000603 64 34 0.0 2.0 0.00 0.00 0.00 83 1031.1
20260901235551 64 13 0.0 1.0 0.00 0.00 0.00 83 1031.0
20260901234541 64 18 1.0 2.0 0.00 0.00 0.00 84 1031.0
20260901233531 64 6 1.0 4.0 0.00 0.00 0.00 83 1031.0
20260901232521 64 30 1.0 3.0 0.00 0.00 0.00 83 1030.9
20260901231612 64 26 1.0 2.0 0.00 0.00 0.00 84 1030.8
20260901230602 64 18 0.0 1.0 0.00 0.00 0.00 85 1030.9
20260901225614 64 25 2.0 3.0 0.00 0.00 0.00 85 1031.0
20260901224542 64 25 0.0 0.0 0.00 0.00 0.00 85 1031.1
20260901223532 64 21 0.0 1.0 0.00 0.00 0.00 86 1031.0
20260901222521 64 0.0 0.0 0.00 0.00 0.00 86 1030.9
20260901221654 64 0.0 0.0 0.00 0.00 0.00 86 1030.8
20260901220604 64 0.0 0.0 0.00 0.00 0.00 86 1030.9
20260901215615 64 0.0 0.0 0.00 0.00 0.00 86 1030.9
20260901214543 64 26 0.0 0.0 0.00 0.00 0.00 87 1030.9
20260901213533 65 0.0 0.0 0.00 0.00 0.00 86 1030.8
20260901212523 65 0.0 0.0 0.00 0.00 0.00 86 1030.7
20260901211614 65 0.0 0.0 0.00 0.00 0.00 85 1030.7
20260901210646 65 5 0.0 1.0 0.00 0.00 0.00 85 1030.6
20260901205614 66 0.0 0.0 0.00 0.00 0.00 84 1030.6
20260901204604 66 0.0 0.0 0.00 0.00 0.00 85 1030.6
20260901203534 66 23 0.0 2.0 0.00 0.00 0.00 85 1030.6
20260901202524 66 0.0 0.0 0.00 0.00 0.00 84 1030.6
20260901201615 67 34 0.0 2.0 0.00 0.00 0.00 84 1030.6
20260901200605 67 24 0.0 1.0 0.00 0.00 0.00 84 1030.4
20260901195555 67 25 0.0 0.0 0.00 0.00 0.00 84 1030.5
20260901194605 67 27 0.0 1.0 0.00 0.00 0.00 83 1030.4
20260901193534 68 0.0 0.0 0.00 0.00 0.00 83 1030.3
20260901192524 68 0.0 0.0 0.00 0.00 0.00 83 1030.1
20260901191616 68 23 0.0 0.0 0.00 0.00 0.00 82 1030.1
20260901190627 68 0.0 0.0 0.00 0.00 0.00 83 1030.0
20260901185556 68 26 0.0 0.0 0.00 0.00 0.00 82 1029.7
20260901184545 69 27 0.0 1.0 0.00 0.00 0.00 82 1029.7
20260901183557 69 50 0.0 1.0 0.00 0.00 0.00 80 1029.6
20260901182607 70 30 0.0 0.0 0.00 0.00 0.00 80 1029.4
20260901181516 70 0.0 0.0 0.00 0.00 0.00 78 1029.4
20260901180629 71 19 0.0 1.0 0.00 0.00 0.00 78 1029.4
20260901175558 71 33 0.0 1.0 0.00 0.00 0.00 77 1029.2
20260901174547 72 39 1.0 2.0 0.00 0.00 0.00 75 1029.1
20260901173559 72 30 1.0 2.0 0.00 0.00 0.00 77 1029.0
20260901172527 73 30 1.0 1.0 0.00 0.00 0.00 75 1028.9
20260901171517 73 49 0.0 1.0 0.00 0.00 0.00 72 1029.0
20260901170609 74 28 0.0 1.0 0.00 0.00 0.00 72 1028.9
20260901165558 74 0.0 0.0 0.00 0.00 0.00 69 1028.9
20260901164548 74 355 1.0 2.0 0.00 0.00 0.00 67 1028.8
20260901163620 75 357 1.0 2.0 0.00 0.00 0.00 66 1028.8
20260901162528 77 0.0 0.0 0.00 0.00 0.00 64 1028.8
20260901161518 78 332 0.0 1.0 0.00 0.00 0.00 58 1028.9
20260901160609 79 202 1.0 2.0 0.00 0.00 0.00 56 1028.8
20260901155559 80 204 2.0 3.0 0.00 0.00 0.00 53 1028.8